Orbital Elements at Epoch 2459000.5 (2020-May-31.0) TDB
Reference: JPL 10 (heliocentric ecliptic J2000)
Element | Value | Uncertainty (1-sigma) | Units |
e | .1953732309415447 | 7.6099e-08 | |
a | 2.760637800535094 | 3.247e-08 | au |
q | 2.221283073985193 | 1.9851e-07 | au |
i | 5.710700093335876 | 7.7865e-06 | deg |
node | 182.8314760321788 | 5.9406e-05 | deg |
peri | 48.30068398077272 | 6.2856e-05 | deg |
M | 167.2182591887696 | 1.6738e-05 | deg |
tp | 2458222.295443098839 (2018-Apr-13.79544310) | 7.7563e-05 | TDB |
period | 1675.377090059032 4.59 | 2.9558e-05 8.093e-08 | d yr |
n | .2148769982209291 | 3.791e-09 | deg/d |
Q | 3.299992527084995 | 3.8814e-08 | au |
|
| | Orbit Determination Parameters
Additional Information
|